Regional Weather Roundup
Issued by NWS Charleston, SC

Current Version | Previous Version | Text Only | Print | Product List | Glossary On
Versions: 1 2 3 4 5 6 7 8 9 10 11 12 13 14 15 16 17 18 19 20 21 22 23 24 25 26 27 28 29 30 31 32 33 34 35 36 37 38 39 40 41 42 43 44 45 46 47 48 49 50
190 ASUS42 KCHS 241828 RWRCHS REGIONAL WEATHER ROUNDUP NATIONAL WEATHER SERVICE CHARLESTON SC 200 PM EDT TUE MAY 24 2016 NOTE: "FAIR" INDICATES FEW OR NO CLOUDS BELOW 12,000 FEET WITH NO SIGNIFICANT WEATHER AND/OR OBSTRUCTIONS TO VISIBILITY. NOT ALL STATIONS ARE QUALITY CONTROLLED. USE DATA WITH CAUTION... ESPECIALLY DEWPOINT OBSERVATIONS. SCZ027-030-031-034>040-042>050-241900- ...SOUTHEAST SOUTH CAROLINA... CITY SKY/WX TMP DP RH WIND PRES REMARKS N CHARLESTON MOSUNNY 83 54 36 W7 30.15F 6HR MIN TEMP: 67; 6HR MAX TEMP: 84; WATERFRONT PRK N/A 74 60 61 SE8 30.14F MOUNT PLEASANT FAIR 79 57 47 SE10 30.16F JOHNS ISLAND FAIR 79 61 53 S8 30.16F PINOPOLIS N/A 81 52 36 NE5 30.09F MONCKS CORNER FAIR 79 45 29 SW7 30.15F SUMMERVILLE FAIR 82 57 42 CALM 30.16F BEAUFORT MCAS MOSUNNY 83 62 49 E6 30.16F 6HR MIN TEMP: 66; 6HR MAX TEMP: 83; BEAUFORT ARPT FAIR 81 61 50 SE6 30.15F HILTON HEAD IS MOSUNNY 79 63 57 SE8 30.18F WALTERBORO PTCLDY 82 57 42 SW9 30.16S ALLENDALE FAIR 82 59 44 CALM 30.13F ...SOUTHERN MIDLANDS AND PEE DEE... CITY SKY/WX TMP DP RH WIND PRES REMARKS GEORGETOWN FAIR 79 48 34 CALM 30.16F KINGSTREE FAIR 81 50 34 W3 30.15F ORANGEBURG MOSUNNY 82 54 37 VRB5 30.15F 6HR MIN TEMP: 63; 6HR MAX TEMP: 82; BARNWELL FAIR 86 59 39 CALM 30.14F AIKEN MOCLDY 81 52 36 CALM 30.17F MANNING FAIR 79 50 36 SW5 30.15F COLUMBIA MOSUNNY 83 52 34 CALM 30.13F 6HR MIN TEMP: 64; 6HR MAX TEMP: 84; SUMTER MOSUNNY 80 52 38 VRB6 30.13F 6HR MIN TEMP: 63; 6HR MAX TEMP: 80; FLORENCE SUNNY 80 52 37 W8 30.15F 6HR MIN TEMP: 60; 6HR MAX TEMP: 80; MYRTLE BEACH SUNNY 79 54 41 S14 30.17S N MYRTLE BEACH SUNNY 75 58 55 S18 30.15S 6HR MIN TEMP: 60; 6HR MAX TEMP: 77; $$ GAZ063-065-086>088-099>101-113>116-118-119-134>141-150-241900- ...SOUTHEAST GEORGIA... CITY SKY/WX TMP DP RH WIND PRES REMARKS SAVANNAH ARPT MOSUNNY 82 63 52 SE13 30.14F 6HR MIN TEMP: 68; 6HR MAX TEMP: 84; HUNTER AAF MOSUNNY 81 67 63 E9 30.13F 6HR MIN TEMP: 69; 6HR MAX TEMP: 81; FORT STEWART PTSUNNY 84 53 34 NE1 30.12F 6HR MIN TEMP: 64; 6HR MAX TEMP: 86; STATESBORO MOSUNNY 87 59 38 W8 30.14F SYLVANIA PTCLDY 86 55 35 W7 30.14F CLAXTON FAIR 86 55 34 NW3 30.14S ...CSRA...CENTRAL AND FAR SOUTHEAST GEORGIA... CITY SKY/WX TMP DP RH WIND PRES REMARKS THOMSON SUNNY 83 55 38 W5 30.18F AUGUSTA-BUSH MOSUNNY 83 57 41 N5 30.13F 6HR MIN TEMP: 61; 6HR MAX TEMP: 84; AUGUSTA-DANIEL SUNNY 84 54 35 CALM 30.15F SWAINSBORO MOCLDY 86 48 26 W6 30.14F VIDALIA PTSUNNY 86 50 28 SW6 30.14F EASTMAN FAIR 86 47 25 CALM 30.17S HAZLEHURST FAIR 85 47 26 CALM 30.13F ALMA MOSUNNY 83 49 30 S5 30.14F 6HR MIN TEMP: 64; 6HR MAX TEMP: 86; WAYCROSS MOSUNNY 85 52 32 CALM 30.14F JESUP CLOUDY 79 48 34 CALM 30.14S BAXLEY PTSUNNY 88 48 25 SE3 30.14F BRUNSWICK MOSUNNY 86 64 48 SE10 30.16S SAINT SIMONS PTSUNNY 79 66 64 E13 30.16S 6HR MIN TEMP: 72; 6HR MAX TEMP: 82; $$ SCZ027-028-034-036>038-045-046-048>050-GAZ119-141-241900- ...LAKE AND SUPPLEMENTAL COASTAL OBSERVATIONS... STATION/POSITION TIME TEMP WIND PRES WAVE SWELL AIR SEA DIR/SP/G HT/PER HT/PER/DIR (UTC) (F) (DEG/KT/KT) (MB) (FT/S) (FT/S/D) WINYAH BAY 1745 74 150/ 10 1021.0S LAKE MURRAY 1700 79 CALM 1020.7S ACE BASIN NERRS 1700 79 160/ 1 1022.0S FORT PULASKI 1800 76 75 90/ 10/ 12 1021.8F SAPELO ISLAND 1800 82 90/ 9 1021.0S $$ ANZ835-935-AMZ111-154-330-350-352-354-370-450-454-472-241900- ...C-MAN AND BUOY OBSERVATIONS... STATION/POSITION TIME TEMP WIND PRES WAVE SWELL AIR SEA DIR/SP/G HT/PER HT/PER/DIR (UTC) (F) (DEG/KT/KT) (MB) (FT/S) (FT/S/D) BUOY 41004 NOT AVBL BUOY 41008 1750 75 77 90/ 8/ 10 1021.6F 2/10 2/100/10 FOLLY BEACH CMAN 1800 73 160/ 8/ 9 1021.9F CAPERS NEARSHORE NOT AVBL FRIPP NEARSHORE NOT AVBL STATION/POSITION TIME TEMP WIND PRES WAVE SWELL AIR SEA DIR/SP/G HT/PER HT/PER/DIR (UTC) (F) (DEG/KT/KT) (MB) (FT/S) (FT/S/D) 5E ST. MARYS GA 1721 79 N/A 2/ 9 FRYING PAN BUOY 1800 71 77 230/ 8/ 10 1021.5R BUOY 41025 1750 70 78 250/ 14/ 17 1019.2F 4/11 3/ 90/11 CAPE LOOKOUT NC 1800 71 230/ 12/ 15 1019.7S BUOY 41002 1750 73 78 310/ 10/ 14 1020.8R 5/10 5/ 20/10 BUOY 41010 1720 78 78 70/ 8/ 10 1021.6R ST AUGUSTINE FL 1800 78 80 110/ 9/ 10 1021.8F $$

USA.gov is the U.S. government's official web portal to all federal, state and local government web resources and services.